When you browse on this site, cookies collect data to enhance your experience and personalize the content and advertising you see.
Visit our Privacy Policy to learn more. By continuing to use the site, you agree to this use of cookies and data.
  • In Romania
  • List of Countries
  • For 7 days
  • Water Temperature
  • Satellite Maps
  • Weather Map
  • Weather Widgets
  • user-avatar
    Login

    Hourly Weather Rawson

    Today, 22 January, Tuesday

    Time Temperature Precipitation Wind Pressure Humidity
    00:00 +23°C° 0 mm 4 mps 753 mmHg 24%
    01:00 +22°C° 0 mm 4 mps 753 mmHg 28%
    02:00 +21°C° 0 mm 4 mps 753 mmHg 31%
    03:00 +21°C° 0 mm 3 mps 753 mmHg 32%
    04:00 +21°C° 0 mm 3 mps 754 mmHg 33%
    05:00 +20°C° 0 mm 2 mps 754 mmHg 34%
    06:00 +21°C° 0 mm 4 mps 754 mmHg 31%
    07:00 +22°C° 0 mm 6 mps 754 mmHg 29%
    08:00 +23°C° 0 mm 8 mps 755 mmHg 27%
    09:00 +23°C° 0 mm 9 mps 755 mmHg 27%
    10:00 +23°C° 0 mm 10 mps 755 mmHg 28%
    11:00 +23°C° 0 mm 11 mps 756 mmHg 28%
    12:00 +23°C° 0 mm 10 mps 756 mmHg 24%
    13:00 +24°C° 0 mm 10 mps 756 mmHg 20%
    14:00 +26°C° 0 mm 10 mps 756 mmHg 17%
    15:00 +26°C° 0 mm 9 mps 756 mmHg 16%
    16:00 +26°C° 0 mm 8 mps 756 mmHg 16%
    17:00 +26°C° 0 mm 7 mps 757 mmHg 16%
    18:00 +23°C° 0 mm 7 mps 757 mmHg 24%
    19:00 +21°C° 0 mm 7 mps 757 mmHg 32%
    20:00 +19°C° 0 mm 6 mps 758 mmHg 41%
    21:00 +17°C° 0 mm 6 mps 758 mmHg 43%
    22:00 +17°C° 0 mm 6 mps 759 mmHg 46%
    23:00 +16°C° 0 mm 5 mps 759 mmHg 49%

    Tomorrow, 23 January, Wednesday

    Time Temperature Precipitation Wind Pressure Humidity
    00:00 +16°C° 0 mm 6 mps 760 mmHg 50%
    01:00 +17°C° 0 mm 6 mps 760 mmHg 51%
    02:00 +17°C° 0 mm 6 mps 760 mmHg 52%
    03:00 +17°C° 0 mm 6 mps 761 mmHg 52%
    04:00 +17°C° 0 mm 5 mps 761 mmHg 51%
    05:00 +17°C° 0 mm 5 mps 761 mmHg 50%
    06:00 +19°C° 0 mm 5 mps 761 mmHg 42%
    07:00 +20°C° 0 mm 5 mps 761 mmHg 33%
    08:00 +21°C° 0 mm 5 mps 762 mmHg 24%
    09:00 +22°C° 0 mm 4 mps 761 mmHg 22%
    10:00 +25°C° 0 mm 4 mps 761 mmHg 20%
    11:00 +26°C° 0 mm 4 mps 761 mmHg 17%
    12:00 +27°C° 0 mm 5 mps 760 mmHg 16%
    13:00 +29°C° 0 mm 5 mps 759 mmHg 15%
    14:00 +30°C° 0 mm 5 mps 759 mmHg 13%
    15:00 +32°C° 0 mm 6 mps 758 mmHg 14%
    16:00 +33°C° 0 mm 7 mps 757 mmHg 16%
    17:00 +33°C° 0 mm 8 mps 756 mmHg 17%
    18:00 +31°C° 0 mm 10 mps 756 mmHg 22%
    19:00 +28°C° 0 mm 11 mps 755 mmHg 27%
    20:00 +26°C° 0 mm 12 mps 755 mmHg 33%
    21:00 +26°C° 0 mm 13 mps 755 mmHg 35%
    22:00 +24°C° 0 mm 13 mps 755 mmHg 36%
    23:00 +24°C° 0 mm 14 mps 755 mmHg 38%

    Day after tomorrow, 24 January, Thursday

    Time Temperature Precipitation Wind Pressure Humidity
    00:00 +23°C° 0 mm 14 mps 754 mmHg 40%
    01:00 +23°C° 0 mm 14 mps 754 mmHg 41%
    02:00 +23°C° 0 mm 13 mps 753 mmHg 42%
    03:00 +23°C° 0 mm 13 mps 753 mmHg 43%
    04:00 +22°C° 0 mm 12 mps 753 mmHg 43%
    05:00 +22°C° 0 mm 11 mps 752 mmHg 44%
    06:00 +26°C° 0 mm 11 mps 752 mmHg 38%
    07:00 +28°C° 0 mm 10 mps 752 mmHg 32%
    08:00 +31°C° 0 mm 9 mps 752 mmHg 27%
    09:00 +34°C° 0 mm 9 mps 752 mmHg 22%
    10:00 +37°C° 0 mm 8 mps 752 mmHg 18%
    11:00 +40°C° 0 mm 8 mps 752 mmHg 13%
    12:00 +38°C° 0.1 mm 8 mps 751 mmHg 17%
    13:00 +36°C° 0.1 mm 7 mps 750 mmHg 21%
    14:00 +34°C° 0.1 mm 7 mps 750 mmHg 25%
    15:00 +33°C° 0.5 mm 7 mps 749 mmHg 29%
    16:00 +33°C° 0.5 mm 7 mps 748 mmHg 32%
    17:00 +32°C° 0.5 mm 7 mps 748 mmHg 35%
    18:00 +29°C° 0 mm 6 mps 748 mmHg 45%
    19:00 +27°C° 0 mm 6 mps 748 mmHg 54%
    20:00 +26°C° 0 mm 6 mps 748 mmHg 63%
    21:00 +24°C° 0 mm 6 mps 749 mmHg 63%
    22:00 +23°C° 0 mm 7 mps 749 mmHg 64%
    23:00 +22°C° 0 mm 8 mps 750 mmHg 64%

    25 January, Friday

    Time Temperature Precipitation Wind Pressure Humidity
    00:00 +23°C° 0 mm 7 mps 750 mmHg 57%
    01:00 +23°C° 0 mm 7 mps 751 mmHg 49%
    02:00 +23°C° 0 mm 7 mps 751 mmHg 41%
    03:00 +23°C° 0 mm 6 mps 751 mmHg 43%
    04:00 +22°C° 0 mm 5 mps 752 mmHg 45%
    05:00 +21°C° 0 mm 3 mps 752 mmHg 47%
    06:00 +22°C° 0 mm 4 mps 752 mmHg 44%
    07:00 +23°C° 0 mm 6 mps 753 mmHg 40%
    08:00 +23°C° 0 mm 7 mps 753 mmHg 37%
    09:00 +24°C° 0 mm 7 mps 753 mmHg 33%
    10:00 +26°C° 0 mm 7 mps 754 mmHg 30%
    11:00 +27°C° 0 mm 7 mps 754 mmHg 27%
    12:00 +27°C° 0 mm 7 mps 754 mmHg 26%
    13:00 +27°C° 0 mm 7 mps 754 mmHg 26%
    14:00 +26°C° 0 mm 7 mps 754 mmHg 26%
    15:00 +26°C° 0 mm 6 mps 754 mmHg 27%
    16:00 +26°C° 0 mm 5 mps 754 mmHg 28%
    17:00 +26°C° 0 mm 4 mps 755 mmHg 29%
    18:00 +25°C° 0 mm 4 mps 755 mmHg 32%
    19:00 +23°C° 0 mm 5 mps 756 mmHg 34%
    20:00 +22°C° 0 mm 5 mps 757 mmHg 37%
    21:00 +21°C° 0 mm 5 mps 757 mmHg 40%
    22:00 +20°C° 0 mm 5 mps 758 mmHg 44%
    23:00 +19°C° 0 mm 5 mps 759 mmHg 47%

    26 January, Saturday

    Time Temperature Precipitation Wind Pressure Humidity
    00:00 +19°C° 0 mm 4 mps 759 mmHg 43%
    01:00 +19°C° 0 mm 4 mps 759 mmHg 39%
    02:00 +19°C° 0 mm 4 mps 759 mmHg 35%
    03:00 +18°C° 0 mm 4 mps 760 mmHg 33%
    04:00 +17°C° 0 mm 5 mps 760 mmHg 31%
    05:00 +16°C° 0 mm 5 mps 760 mmHg 30%
    06:00 +17°C° 0 mm 5 mps 761 mmHg 29%
    07:00 +17°C° 0 mm 5 mps 761 mmHg 29%
    08:00 +19°C° 0 mm 5 mps 762 mmHg 28%
    09:00 +20°C° 0 mm 4 mps 762 mmHg 26%
    10:00 +21°C° 0 mm 3 mps 762 mmHg 24%
    11:00 +23°C° 0 mm 2 mps 762 mmHg 22%
    12:00 +24°C° 0 mm 2 mps 761 mmHg 21%
    13:00 +25°C° 0 mm 3 mps 761 mmHg 19%
    14:00 +26°C° 0 mm 3 mps 760 mmHg 18%
    15:00 +26°C° 0 mm 4 mps 760 mmHg 18%
    16:00 +27°C° 0 mm 5 mps 759 mmHg 19%
    17:00 +27°C° 0 mm 6 mps 759 mmHg 19%
    18:00 +26°C° 0 mm 8 mps 759 mmHg 23%
    19:00 +24°C° 0 mm 9 mps 758 mmHg 27%
    20:00 +23°C° 0 mm 11 mps 758 mmHg 31%
    21:00 +23°C° 0 mm 11 mps 758 mmHg 33%
    22:00 +22°C° 0 mm 11 mps 758 mmHg 36%
    23:00 +21°C° 0 mm 11 mps 757 mmHg 39%

    27 January, Sunday

    Time Temperature Precipitation Wind Pressure Humidity
    00:00 +21°C° 0 mm 11 mps 756 mmHg 43%
    01:00 +21°C° 0 mm 11 mps 756 mmHg 47%
    02:00 +19°C° 0 mm 11 mps 755 mmHg 51%
    03:00 +19°C° 0 mm 10 mps 754 mmHg 54%
    04:00 +19°C° 0 mm 10 mps 754 mmHg 56%
    05:00 +19°C° 0 mm 10 mps 753 mmHg 59%
    06:00 +21°C° 0.4 mm 10 mps 753 mmHg 57%
    07:00 +22°C° 0.4 mm 11 mps 752 mmHg 56%
    08:00 +23°C° 0.4 mm 11 mps 752 mmHg 54%
    09:00 +26°C° 0 mm 10 mps 752 mmHg 42%
    10:00 +29°C° 0 mm 9 mps 752 mmHg 31%
    11:00 +32°C° 0 mm 8 mps 751 mmHg 19%
    12:00 +32°C° 0 mm 9 mps 751 mmHg 17%
    13:00 +31°C° 0 mm 9 mps 751 mmHg 15%
    14:00 +31°C° 0 mm 9 mps 751 mmHg 13%
    15:00 +31°C° 0 mm 9 mps 752 mmHg 13%
    16:00 +31°C° 0 mm 9 mps 752 mmHg 13%
    17:00 +31°C° 0 mm 9 mps 752 mmHg 14%
    18:00 +28°C° 0 mm 9 mps 753 mmHg 14%
    19:00 +27°C° 0 mm 10 mps 753 mmHg 15%
    20:00 +24°C° 0 mm 11 mps 754 mmHg 16%
    21:00 +23°C° 0 mm 11 mps 755 mmHg 17%
    22:00 +22°C° 0 mm 11 mps 755 mmHg 18%
    23:00 +21°C° 0 mm 11 mps 756 mmHg 19%
    Show more